Location: Aalen
(48.8330°N, 10.1000°E)
Time: 11:25:13
(UTC+02:00)

S-56A Canister/Altair - Pass Details

Date: 06 August 2021
Orbit: 632 x 2500 km, 38.9° (Epoch: 21 September)

Event Time Altitude Azimuth Distance (km) Brightness Sun altitude
Rises 14:22:04 0° 223° (SW) 4,887 12.1 55.7°
Reaches altitude 10° 14:25:11 10° 217° (SW) 4,137 12.0 55.5°
Maximum altitude 14:35:47 42° 152° (SSE) 2,941 11.4 54.7°
Drops below altitude 10° 14:49:03 10° 90° (E) 5,157 11.6 53.5°
Sets 14:53:26 0° 84° (E) 6,178 11.9 53.1°
